• In Portugal
  • List of Countries
  • For 7 days
  • Water Temperature
  • Satellite Maps
  • Weather Map
  • Weather Widgets
  • user-avatar
    Login

    Hourly Weather Windhuk

    Today, 18 June, Monday

    Time Temperature Precipitation Wind Pressure Humidity
    00:00 +12°C° 0 mm 1 mps 623 mmHg 24%
    01:00 +11°C° 0 mm 1 mps 623 mmHg 25%
    02:00 +11°C° 0 mm 1 mps 623 mmHg 26%
    03:00 +11°C° 0 mm 1 mps 623 mmHg 27%
    04:00 +10°C° 0 mm 1 mps 622 mmHg 28%
    05:00 +10°C° 0 mm 1 mps 622 mmHg 29%
    06:00 +10°C° 0 mm 1 mps 622 mmHg 30%
    07:00 +10°C° 0 mm 2 mps 623 mmHg 31%
    08:00 +14°C° 0 mm 2 mps 624 mmHg 26%
    09:00 +17°C° 0 mm 2 mps 625 mmHg 22%
    10:00 +20°C° 0 mm 2 mps 627 mmHg 17%
    11:00 +21°C° 0 mm 3 mps 626 mmHg 16%
    12:00 +22°C° 0 mm 3 mps 626 mmHg 15%
    13:00 +25°C° 0 mm 4 mps 626 mmHg 12%
    14:00 +24°C° 0 mm 3 mps 626 mmHg 12%
    15:00 +24°C° 0 mm 3 mps 625 mmHg 12%
    16:00 +24°C° 0 mm 3 mps 625 mmHg 12%
    17:00 +20°C° 0 mm 3 mps 624 mmHg 16%
    18:00 +18°C° 0 mm 2 mps 623 mmHg 19%
    19:00 +15°C° 0 mm 1 mps 623 mmHg 22%
    20:00 +14°C° 0 mm 1 mps 623 mmHg 24%
    21:00 +13°C° 0 mm 1 mps 623 mmHg 25%
    22:00 +13°C° 0 mm 1 mps 623 mmHg 27%
    23:00 +12°C° 0 mm 1 mps 622 mmHg 28%

    Tomorrow, 19 June, Tuesday

    Time Temperature Precipitation Wind Pressure Humidity
    00:00 +11°C° 0 mm 1 mps 622 mmHg 29%
    01:00 +10°C° 0 mm 0 mps 622 mmHg 30%
    02:00 +9°C° 0 mm 0 mps 621 mmHg 31%
    03:00 +9°C° 0 mm 0 mps 621 mmHg 32%
    04:00 +8°C° 0 mm 0 mps 621 mmHg 33%
    05:00 +8°C° 0 mm 0 mps 621 mmHg 34%
    06:00 +8°C° 0 mm 0 mps 621 mmHg 34%
    07:00 +8°C° 0 mm 0 mps 622 mmHg 34%
    08:00 +12°C° 0 mm 0 mps 623 mmHg 28%
    09:00 +16°C° 0 mm 1 mps 625 mmHg 22%
    10:00 +21°C° 0 mm 1 mps 626 mmHg 16%
    11:00 +21°C° 0 mm 2 mps 626 mmHg 15%
    12:00 +22°C° 0 mm 3 mps 626 mmHg 14%
    13:00 +23°C° 0 mm 4 mps 626 mmHg 12%
    14:00 +23°C° 0 mm 4 mps 625 mmHg 12%
    15:00 +22°C° 0 mm 4 mps 625 mmHg 13%
    16:00 +22°C° 0 mm 4 mps 625 mmHg 13%
    17:00 +20°C° 0 mm 3 mps 624 mmHg 16%
    18:00 +17°C° 0 mm 3 mps 624 mmHg 19%
    19:00 +15°C° 0 mm 2 mps 623 mmHg 22%
    20:00 +14°C° 0 mm 2 mps 623 mmHg 24%
    21:00 +13°C° 0 mm 1 mps 623 mmHg 26%
    22:00 +12°C° 0 mm 1 mps 623 mmHg 28%
    23:00 +12°C° 0 mm 1 mps 623 mmHg 29%

    Day after tomorrow, 20 June, Wednesday

    Time Temperature Precipitation Wind Pressure Humidity
    00:00 +11°C° 0 mm 1 mps 622 mmHg 30%
    01:00 +9°C° 0 mm 0 mps 622 mmHg 32%
    02:00 +10°C° 0 mm 1 mps 622 mmHg 32%
    03:00 +10°C° 0 mm 1 mps 622 mmHg 33%
    04:00 +9°C° 0 mm 1 mps 621 mmHg 33%
    05:00 +9°C° 0 mm 1 mps 622 mmHg 33%
    06:00 +9°C° 0 mm 1 mps 622 mmHg 33%
    07:00 +10°C° 0 mm 1 mps 622 mmHg 33%
    08:00 +13°C° 0 mm 2 mps 624 mmHg 27%
    09:00 +17°C° 0 mm 2 mps 626 mmHg 21%
    10:00 +20°C° 0 mm 3 mps 627 mmHg 16%
    11:00 +21°C° 0 mm 3 mps 627 mmHg 15%
    12:00 +22°C° 0 mm 4 mps 627 mmHg 13%
    13:00 +23°C° 0 mm 4 mps 627 mmHg 12%
    14:00 +23°C° 0 mm 4 mps 626 mmHg 12%
    15:00 +23°C° 0 mm 4 mps 626 mmHg 12%
    16:00 +23°C° 0 mm 4 mps 626 mmHg 12%
    17:00 +20°C° 0 mm 3 mps 625 mmHg 16%
    18:00 +18°C° 0 mm 2 mps 624 mmHg 19%
    19:00 +15°C° 0 mm 1 mps 624 mmHg 22%
    20:00 +14°C° 0 mm 1 mps 624 mmHg 23%
    21:00 +13°C° 0 mm 1 mps 624 mmHg 24%
    22:00 +13°C° 0 mm 1 mps 624 mmHg 25%
    23:00 +12°C° 0 mm 1 mps 624 mmHg 26%

    21 June, Thursday

    Time Temperature Precipitation Wind Pressure Humidity
    00:00 +12°C° 0 mm 1 mps 624 mmHg 26%
    01:00 +11°C° 0 mm 1 mps 623 mmHg 27%
    02:00 +11°C° 0 mm 1 mps 623 mmHg 28%
    03:00 +10°C° 0 mm 1 mps 623 mmHg 29%
    04:00 +10°C° 0 mm 1 mps 623 mmHg 30%
    05:00 +10°C° 0 mm 1 mps 623 mmHg 30%
    06:00 +10°C° 0 mm 1 mps 624 mmHg 30%
    07:00 +10°C° 0 mm 1 mps 624 mmHg 31%
    08:00 +14°C° 0 mm 2 mps 625 mmHg 26%
    09:00 +17°C° 0 mm 2 mps 627 mmHg 22%
    10:00 +20°C° 0 mm 3 mps 628 mmHg 18%
    11:00 +21°C° 0 mm 3 mps 628 mmHg 17%
    12:00 +22°C° 0 mm 3 mps 628 mmHg 16%
    13:00 +24°C° 0 mm 3 mps 627 mmHg 15%
    14:00 +24°C° 0 mm 3 mps 627 mmHg 14%
    15:00 +24°C° 0 mm 2 mps 627 mmHg 14%
    16:00 +24°C° 0 mm 1 mps 627 mmHg 14%
    17:00 +21°C° 0 mm 1 mps 626 mmHg 18%
    18:00 +19°C° 0 mm 1 mps 625 mmHg 21%
    19:00 +15°C° 0 mm 1 mps 625 mmHg 25%
    20:00 +15°C° 0 mm 1 mps 625 mmHg 26%
    21:00 +14°C° 0 mm 1 mps 625 mmHg 26%
    22:00 +14°C° 0 mm 1 mps 625 mmHg 27%
    23:00 +13°C° 0 mm 1 mps 625 mmHg 27%

    22 June, Friday

    Time Temperature Precipitation Wind Pressure Humidity
    00:00 +13°C° 0 mm 1 mps 625 mmHg 27%
    01:00 +12°C° 0 mm 1 mps 625 mmHg 28%
    02:00 +12°C° 0 mm 1 mps 624 mmHg 29%
    03:00 +11°C° 0 mm 1 mps 624 mmHg 30%
    04:00 +11°C° 0 mm 1 mps 624 mmHg 31%
    05:00 +10°C° 0 mm 1 mps 624 mmHg 32%
    06:00 +10°C° 0 mm 1 mps 625 mmHg 33%
    07:00 +10°C° 0 mm 1 mps 625 mmHg 34%
    08:00 +13°C° 0 mm 2 mps 626 mmHg 28%
    09:00 +17°C° 0 mm 3 mps 627 mmHg 23%
    10:00 +20°C° 0 mm 4 mps 629 mmHg 18%
    11:00 +21°C° 0 mm 4 mps 628 mmHg 17%
    12:00 +22°C° 0 mm 4 mps 628 mmHg 16%
    13:00 +23°C° 0 mm 4 mps 628 mmHg 14%
    14:00 +24°C° 0 mm 3 mps 627 mmHg 14%
    15:00 +24°C° 0 mm 3 mps 627 mmHg 14%
    16:00 +24°C° 0 mm 2 mps 627 mmHg 14%
    17:00 +20°C° 0 mm 2 mps 626 mmHg 17%
    18:00 +19°C° 0 mm 1 mps 625 mmHg 21%
    19:00 +15°C° 0 mm 1 mps 625 mmHg 24%
    20:00 +15°C° 0 mm 1 mps 625 mmHg 26%
    21:00 +14°C° 0 mm 1 mps 625 mmHg 27%
    22:00 +13°C° 0 mm 1 mps 625 mmHg 28%
    23:00 +13°C° 0 mm 1 mps 625 mmHg 29%

    23 June, Saturday

    Time Temperature Precipitation Wind Pressure Humidity
    00:00 +12°C° 0 mm 1 mps 624 mmHg 30%
    01:00 +12°C° 0 mm 1 mps 624 mmHg 32%
    02:00 +11°C° 0 mm 1 mps 624 mmHg 33%
    03:00 +11°C° 0 mm 1 mps 624 mmHg 35%
    04:00 +10°C° 0 mm 0 mps 623 mmHg 36%
    05:00 +11°C° 0 mm 1 mps 624 mmHg 37%
    06:00 +11°C° 0 mm 1 mps 624 mmHg 37%
    07:00 +11°C° 0 mm 1 mps 624 mmHg 38%
    08:00 +14°C° 0 mm 2 mps 626 mmHg 33%
    09:00 +17°C° 0 mm 3 mps 627 mmHg 29%
    10:00 +20°C° 0 mm 4 mps 628 mmHg 24%
    11:00 +21°C° 0 mm 3 mps 627 mmHg 23%
    12:00 +22°C° 0 mm 3 mps 627 mmHg 22%
    13:00 +24°C° 0 mm 3 mps 627 mmHg 20%
    14:00 +24°C° 0 mm 3 mps 626 mmHg 20%
    15:00 +23°C° 0 mm 2 mps 626 mmHg 20%
    16:00 +23°C° 0 mm 2 mps 626 mmHg 19%
    17:00 +21°C° 0 mm 1 mps 625 mmHg 24%
    18:00 +19°C° 0 mm 1 mps 625 mmHg 28%
    19:00 +15°C° 0 mm 1 mps 624 mmHg 33%
    20:00 +15°C° 0 mm 1 mps 624 mmHg 34%
    21:00 +13°C° 0 mm 0 mps 624 mmHg 36%
    22:00 +12°C° 0 mm 0 mps 624 mmHg 37%
    23:00 +13°C° 0 mm 1 mps 624 mmHg 37%
    Show more